Home   Weather   Brighton   Past weeks
Flag for United Kingdom

Past Weather in Brighton, England, United Kingdom — Yesterday and Last 2 Weeks

Now
66 °F

Passing clouds.


Feels Like: 66 °F
Forecast: 68 / 56 °F
Wind: 9 mph from South

Location: Shoreham Airport

Current Time: Jul 16, 2019 at 2:38:02 pm

Latest Report: Jul 16, 2019 at 1:50 pm


Visibility: N/A

Pressure: 30.12 "Hg

Humidity: 64%

Dew Point: 54 °F

Location of BrightonLocation

Past Weather in Brighton — Graph

°F

Brighton Temperature Yesterday

Maximum temperature yesterday: 66 °F (at 12:50 pm)
Minimum temperature yesterday: 59 °F (at 9:20 am)
Average temperature yesterday: 64 °F

High & Low Weather Summary for the Past Weeks

 TemperatureHumidityPressure
High79 °F (Jul 12, 5:20 pm)88% (Jul 7, 11:20 am)30.30 "Hg (Jul 7, 11:20 am)
Low57 °F (Jul 2, 7:50 am)39% (Jul 12, 5:20 pm)29.89 "Hg (Jul 6, 12:20 pm)
Average67 °F64%30.12 "Hg
* Reported Jul 1 1:20 pm — Jul 16 1:20 pm, Brighton. Weather by CustomWeather, © 2019

Note: Actual official high and low records may vary slightly from our data, if they occured in-between our weather recording intervals... More about our weather records

Advertising

Brighton Weather History for the Previous 24 Hours

Scroll right to see more
 ConditionsComfort  
Time TempWeatherWind HumidityBarometerVisibility
1:20 pm
Tue, Jul 16
66 °FPassing clouds.10 mph64%30.12 "HgN/A
12:50 pm66 °FSunny.9 mph68%30.12 "Hg10 mi
12:20 pm64 °FPassing clouds.9 mph68%30.12 "HgN/A
11:50 am66 °FPassing clouds.10 mph68%30.12 "HgN/A
11:20 am64 °FPassing clouds.9 mph73%30.12 "HgN/A
10:50 am64 °FPassing clouds.9 mph73%30.12 "HgN/A
10:20 am66 °FPassing clouds.8 mph73%30.12 "HgN/A
9:50 am64 °FPassing clouds.8 mph73%30.12 "HgN/A
7:50 pm
Mon, Jul 15
63 °FSunny.7 mph64%30.15 "Hg10 mi
7:20 pm64 °FSunny.6 mph60%30.15 "Hg10 mi
6:50 pm64 °FSunny.5 mph60%30.15 "Hg10 mi
6:20 pm64 °FPassing clouds.8 mph60%30.15 "HgN/A
5:50 pm66 °FPassing clouds.6 mph56%30.15 "HgN/A
5:20 pm66 °FPassing clouds.7 mph56%30.15 "HgN/A
4:50 pm66 °FScattered clouds.8 mph56%30.15 "HgN/A
4:20 pm66 °FScattered clouds.9 mph56%30.15 "HgN/A
3:50 pm66 °FScattered clouds.9 mph56%30.18 "HgN/A
2:50 pm66 °FScattered clouds.7 mph56%30.18 "HgN/A
2:20 pm66 °FScattered clouds.9 mph56%30.18 "HgN/A
Weather by CustomWeather, © 2019

See weather overview

LIVE PARTIAL LUNAR ECLIPSE – Watch the eclipse as it happens